Theta_e
341 342 342 342 342 343 343 342 341 340 339 339 339 338 338 337 335 335 335 341 346 348 351 355 358 359 359 358 356 354 353 353 353 351 350 350 351 351 352 352 351 350 350
342 339 340 340 340 341 342 342 342 341 340 340 339 339 338 339 339 340 340 341 345 348 352 356 358 360 360 360 358 356 353 351 350 350 349 349 349 350 351 352 351 351 350
342 341 338 339 340 341 341 341 342 342 340 340 339 340 342 343 344 345 346 347 348 349 351 352 354 356 357 359 359 358 356 354 352 350 349 348 348 348 349 350 351 351 350
344 339 339 339 341 341 341 340 341 341 340 341 339 340 343 345 347 348 349 350 347 346 344 348 352 353 352 351 353 355 355 352 351 351 349 348 348 348 349 349 350 351 350
344 341 339 339 341 342 342 341 340 340 341 341 339 341 341 341 342 344 343 341 341 341 337 338 344 343 342 343 348 352 352 350 349 350 350 350 349 349 348 349 349 349 349
346 344 343 343 344 344 344 341 340 337 337 335 336 337 338 340 342 340 340 338 336 337 332 330 331 331 336 341 345 345 348 351 351 351 349 348 348 349 348 349 349 349 349
339 337 338 339 340 341 343 341 338 335 335 334 333 332 335 336 336 335 338 336 332 331 328 328 328 330 329 336 338 340 344 348 351 350 347 345 345 346 348 349 349 348 348
337 335 333 334 338 338 333 331 333 334 335 336 331 326 324 327 328 322 328 329 329 327 324 326 326 328 331 333 333 337 342 343 345 349 347 344 345 346 345 343 346 347 348
336 336 335 335 335 335 332 330 328 333 330 332 333 328 318 317 317 319 321 322 325 323 324 325 327 328 330 331 329 330 335 336 339 345 345 343 346 347 348 345 346 347 346
336 339 338 338 338 335 333 331 335 334 334 331 330 331 326 319 312 312 320 320 321 321 324 324 325 326 328 327 326 331 332 334 336 338 340 343 345 349 348 347 346 346 346
334 336 338 339 335 333 335 336 336 335 334 329 328 327 326 324 318 315 316 318 319 321 322 323 324 324 324 325 323 325 327 328 330 331 333 338 344 347 347 347 345 345 345
324 325 327 329 331 335 335 334 335 334 333 332 330 327 322 318 317 315 314 315 316 320 322 321 321 322 322 322 325 328 326 325 325 326 326 330 338 343 344 345 346 346 347
317 317 320 320 321 323 323 324 326 328 328 328 327 325 324 321 321 318 315 319 318 324 324 322 322 323 324 324 324 326 328 325 323 322 323 326 331 336 338 341 343 343 344
315 316 316 316 316 316 317 317 318 319 319 319 318 319 321 322 324 323 321 319 315 318 321 323 328 324 324 324 324 326 326 323 322 321 321 321 323 327 331 334 335 336 337
313 312 312 312 312 312 312 312 312 311 312 314 312 312 312 313 311 313 314 315 313 307 308 314 316 325 324 325 324 326 326 323 322 321 320 320 321 322 324 325 326 327 328
308 308 308 308 309 309 308 308 307 309 308 308 308 307 307 307 307 310 309 309 309 306 302 310 312 317 320 321 323 325 325 323 321 320 320 320 319 319 320 320 320 321 323
305 305 306 306 305 305 305 305 304 306 305 305 305 304 304 305 303 304 303 305 306 307 302 303 307 311 313 315 317 320 322 323 324 319 320 319 317 317 317 317 317 318 320
303 303 304 304 304 303 303 303 302 303 303 303 302 302 302 303 302 303 302 302 302 303 300 299 302 304 306 309 311 312 315 319 321 321 319 318 316 315 314 314 314 314 314
301 302 302 302 302 303 302 303 302 302 303 302 302 302 302 302 301 301 300 299 300 300 301 300 299 301 302 304 303 309 312 312 313 319 317 317 316 316 315 314 313 312 312
301 301 301 301 302 302 302 302 302 302 302 302 303 302 302 302 302 301 301 300 300 299 300 299 299 299 300 302 302 302 303 309 310 313 314 314 313 315 315 315 315 315 311
300 300 300 301 301 301 303 302 302 301 301 301 302 302 303 304 306 306 305 304 304 302 300 299 298 299 298 298 297 300 299 300 305 309 310 309 311 313 317 315 317 317 313
298 299 299 299 300 301 300 300 302 301 302 301 301 303 303 304 304 304 304 304 304 301 300 299 299 297 299 300 300 298 298 298 298 307 304 304 310 311 313 317 314 310 310
297 298 299 300 300 301 299 298 300 303 303 303 303 304 304 305 305 305 304 304 304 303 303 302 299 299 299 301 301 299 298 298 298 303 304 301 308 307 310 312 308 308 307
298 299 299 301 301 302 299 298 299 304 305 305 306 306 305 305 306 305 304 304 304 304 304 304 303 303 303 304 303 302 301 301 301 302 303 300 305 305 309 314 309 307 305
301 301 301 301 302 303 299 298 300 304 304 305 306 306 307 306 303 299 303 302 302 303 305 303 301 300 299 298 300 301 299 299 298 300 304 302 304 305 309 311 315 308 306
301 302 303 304 303 304 300 298 298 303 303 304 306 306 303 302 298 297 300 300 299 301 303 303 303 302 301 301 300 301 300 297 298 298 305 303 304 308 307 316 315 317 317
Wind_Speed
4 3 3 3 3 3 4 5 4 4 5 6 6 6 8 7 8 5 4 12 12 12 13 14 12 12 12 13 15 13 15 16 20 19 18 19 19 19 19 19 19 19 18
4 4 2 3 4 5 4 4 5 5 6 5 6 7 8 8 7 7 6 7 12 13 12 12 10 10 11 12 12 11 14 15 19 18 17 19 19 20 20 20 21 19 19
6 5 5 4 5 5 5 4 6 5 5 4 9 7 6 8 7 7 6 5 6 8 9 7 7 9 9 11 13 11 11 12 15 17 17 19 19 19 20 20 20 21 21
9 8 6 6 6 4 4 4 4 3 3 4 7 6 4 5 7 7 5 4 2 3 5 3 5 8 7 8 8 8 9 10 10 13 16 18 17 18 19 19 20 21 21
11 8 6 8 6 4 4 4 6 4 2 4 4 6 5 7 6 5 5 7 6 4 4 3 5 8 7 8 7 7 8 10 10 9 13 11 15 17 19 18 18 18 19
4 3 4 5 4 5 4 3 5 1 3 2 3 8 7 7 4 4 5 5 4 7 5 4 3 3 7 7 8 8 8 9 10 10 9 11 14 16 18 17 17 16 18
4 4 4 2 1 2 2 2 1 0 3 2 3 7 4 7 6 7 5 5 7 7 6 3 4 3 3 7 10 8 9 10 11 12 11 12 14 15 16 15 17 15 18
4 4 3 4 5 4 4 3 2 1 2 3 5 1 6 5 5 4 3 7 11 3 6 4 4 4 4 4 7 11 10 9 10 12 10 11 13 15 15 15 17 17 18
2 3 5 4 6 6 8 9 5 5 6 3 7 3 3 3 4 4 4 5 5 4 4 4 5 5 5 5 6 8 13 14 12 11 13 11 11 13 14 16 17 17 16
3 3 4 5 6 5 4 3 2 3 2 9 2 4 2 4 3 6 3 4 3 5 5 4 4 6 5 4 8 11 13 14 18 13 14 13 14 13 13 13 12 11 11
2 1 3 4 5 4 3 5 4 6 6 4 5 3 4 4 7 7 12 6 2 4 5 4 5 5 6 6 6 8 13 14 15 15 15 14 15 14 11 10 11 11 11
4 7 6 5 6 4 4 6 8 9 8 8 6 7 5 5 3 5 10 6 7 6 5 5 5 6 5 7 10 14 14 14 13 13 17 16 15 15 13 13 11 12 13
4 8 8 8 7 8 8 7 5 2 1 3 4 3 4 5 3 4 4 5 6 5 5 4 6 5 7 6 8 13 14 14 13 14 15 16 12 13 14 14 12 10 10
4 6 8 8 10 8 7 7 5 5 4 5 5 5 2 2 1 1 2 4 8 9 9 15 5 5 5 6 9 14 10 13 15 14 14 13 14 14 15 14 13 12 11
6 7 8 9 8 7 7 6 4 6 5 5 6 5 3 4 4 3 4 4 6 9 13 8 8 6 6 6 8 9 10 12 13 12 13 13 14 13 12 12 10 10 10
8 8 8 7 6 6 7 7 5 4 5 3 2 3 4 2 3 2 2 3 4 7 12 5 8 9 9 9 12 13 11 13 12 10 12 12 11 11 12 12 13 11 11
7 8 8 8 6 5 5 5 5 4 5 4 4 5 7 5 4 4 5 5 5 6 11 14 9 10 13 14 13 12 11 11 9 12 12 12 10 9 11 12 13 13 13
7 5 5 5 6 6 5 5 6 6 6 5 7 6 7 6 7 6 6 7 7 7 8 18 10 10 12 12 15 16 13 12 12 12 10 10 10 11 12 13 15 14 14
5 5 6 7 8 8 8 7 6 6 6 7 8 8 9 9 9 8 8 8 8 8 9 11 13 9 8 9 12 13 14 14 13 19 14 13 13 13 12 14 15 15 15
4 4 5 6 6 8 8 7 7 8 8 8 9 9 10 11 11 11 10 10 9 10 10 10 11 11 9 8 7 10 13 11 11 10 13 12 12 11 14 15 16 16 15
5 5 6 6 6 6 6 7 8 8 8 10 9 10 10 12 19 17 11 11 11 11 11 11 11 12 10 9 9 8 10 10 10 8 8 7 9 10 9 13 18 15 14
6 6 7 7 8 6 10 10 9 8 9 9 10 10 11 14 13 17 19 21 18 14 15 13 12 14 16 11 10 10 10 10 12 8 11 13 11 10 10 10 12 14 13
5 6 6 6 7 8 10 11 12 8 9 8 10 10 11 9 12 12 14 17 18 20 22 16 17 16 16 14 12 13 12 11 12 10 9 13 10 11 10 10 12 13 13
5 5 7 8 8 8 11 12 13 8 9 10 10 12 12 14 14 13 13 15 16 16 16 13 16 17 16 15 14 13 13 13 11 10 10 12 10 11 10 9 11 12 10
7 7 7 9 9 10 13 13 12 9 9 11 10 11 12 14 20 15 13 15 16 19 18 22 25 28 28 23 19 11 12 9 10 9 8 9 8 10 9 10 9 13 13
7 7 9 8 9 9 12 14 13 7 9 9 10 12 13 13 18 18 12 14 15 19 17 17 15 17 20 19 25 18 14 12 10 7 8 7 8 6 5 4 7 6 5
Wind_Direction
175 169 203 197 200 196 221 245 250 260 262 260 260 259 271 268 267 263 266 272 266 265 272 277 267 253 249 247 247 238 240 235 238 238 235 238 234 236 236 235 235 232 229
176 164 188 228 232 223 229 224 238 249 262 262 268 252 258 258 260 262 267 268 257 258 262 264 269 266 259 262 267 255 246 242 242 243 236 239 239 234 235 233 236 233 231
177 177 164 228 226 207 223 230 227 220 242 248 263 263 258 263 261 262 256 263 269 263 244 226 266 274 275 277 275 272 264 252 240 238 235 240 239 236 234 234 233 234 231
181 181 194 191 226 218 218 212 264 263 268 254 270 265 266 265 263 261 274 274 275 290 276 198 228 249 259 269 278 281 283 282 265 245 236 242 246 245 242 240 235 233 230
199 180 204 194 178 225 230 227 223 183 230 268 271 276 260 256 257 273 286 268 251 234 240 246 239 256 267 278 281 292 285 287 281 267 254 250 245 249 249 246 241 243 234
210 274 251 244 179 153 259 255 250 189 151 160 306 275 266 263 260 219 233 261 253 236 221 218 228 236 263 291 296 294 289 288 284 278 270 259 254 250 252 254 249 239 243
164 164 220 183 153 213 213 246 249 110 340 54 299 275 281 254 251 240 226 241 255 242 227 204 224 237 277 276 275 275 272 268 275 282 277 252 255 259 253 243 249 241 244
176 207 194 199 207 200 187 140 178 41 238 230 260 291 291 294 279 265 262 252 237 232 247 236 234 237 252 258 264 282 275 265 267 273 270 268 256 254 250 250 247 247 245
261 266 274 262 221 200 221 211 173 179 244 257 200 210 216 266 343 312 283 240 230 227 246 249 242 245 234 241 266 283 289 291 284 270 272 276 254 251 244 240 244 244 239
250 236 252 279 266 235 220 202 231 236 198 251 161 209 147 172 224 320 309 293 249 245 245 251 257 263 243 236 259 263 265 275 287 286 280 270 270 247 246 252 251 238 243
90 201 300 255 229 211 202 221 245 240 207 182 205 173 192 204 210 224 273 263 304 264 257 244 246 245 250 249 262 254 252 260 267 278 286 268 267 265 264 256 242 238 247
342 19 26 28 3 346 267 234 218 211 213 208 191 186 191 179 176 207 235 268 255 256 244 243 243 252 257 260 265 259 249 249 253 264 281 280 249 249 252 256 248 245 244
25 11 28 30 28 16 356 356 358 351 314 250 237 209 177 175 169 203 208 245 262 291 287 251 236 236 243 242 253 258 261 254 254 255 271 276 259 250 247 245 242 246 244
41 29 33 38 36 23 14 12 11 6 15 356 6 1 5 359 320 291 274 291 287 264 269 265 270 257 259 246 246 247 261 249 249 250 262 264 271 264 246 235 231 224 230
43 28 36 35 30 18 16 11 20 8 3 354 13 14 6 19 14 356 346 334 284 291 288 274 278 271 291 291 283 277 270 259 257 248 258 265 270 269 260 259 251 249 247
34 31 14 36 21 9 7 357 349 340 356 354 337 331 354 303 339 282 312 289 277 282 284 305 300 298 300 298 294 288 284 270 262 247 247 257 250 247 257 258 264 262 257
47 31 11 5 355 360 2 336 317 323 336 324 323 326 326 313 300 309 277 279 258 252 274 295 301 295 284 279 280 283 285 285 280 249 249 252 268 271 258 255 258 256 253
19 18 357 341 349 342 328 323 327 333 330 318 314 310 295 295 280 275 271 260 256 254 270 286 299 299 298 298 287 278 277 280 287 280 265 257 255 262 267 262 257 255 256
14 2 355 345 337 326 326 323 316 308 296 292 291 289 291 293 288 276 269 268 263 263 255 270 286 284 289 295 295 294 280 269 267 265 263 249 245 250 260 264 260 256 253
348 340 329 323 316 314 308 294 302 292 295 296 286 287 284 279 274 273 269 268 266 263 263 264 275 278 272 261 251 282 283 270 268 264 263 266 277 263 258 265 264 262 253
338 329 319 325 315 310 303 306 305 298 293 283 277 268 266 265 279 284 283 280 275 269 274 267 271 273 274 277 266 268 272 281 285 279 275 274 279 274 263 253 263 256 246
330 326 328 322 319 313 300 301 302 297 286 286 292 292 273 281 290 285 281 278 266 273 273 273 274 271 276 272 267 269 271 272 278 254 263 267 259 261 259 255 250 248 234
312 312 314 314 312 303 298 305 298 294 291 291 289 294 298 290 294 291 285 280 276 265 252 258 264 264 270 263 263 265 263 259 262 266 264 274 274 274 268 266 252 254 248
312 317 323 324 322 313 308 312 316 311 313 303 296 293 294 296 288 284 288 289 281 273 265 258 255 261 257 257 253 258 263 265 266 265 255 261 258 262 265 260 251 252 241
335 328 320 321 327 323 321 321 331 324 303 298 295 293 291 294 291 294 298 296 292 284 281 262 255 260 261 259 251 263 255 260 260 254 238 238 252 258 262 263 251 231 226
326 331 333 336 326 348 348 356 350 317 306 313 319 308 299 285 287 296 292 283 281 279 282 286 272 261 260 256 250 241 249 242 240 264 230 219 236 238 252 242 248 239 222